When you browse on this site, cookies collect data to enhance your experience and personalize the content and advertising you see.
Visit our Privacy Policy to learn more. By continuing to use the site, you agree to this use of cookies and data.

Météo par heure à Gedaref

Ce jour, 7 Juillet, Mardi

Heure Température Précipitation Vent Pression Humidité
00:00 +29°C° 8.4 mm 4 m/s 710 mmHg 67%
01:00 +27°C° 8.4 mm 3 m/s 709 mmHg 79%
02:00 +25°C° 8.4 mm 3 m/s 708 mmHg 91%
03:00 +25°C° 10.6 mm 5 m/s 709 mmHg 90%
04:00 +23°C° 10.6 mm 7 m/s 709 mmHg 89%
05:00 +23°C° 10.6 mm 9 m/s 709 mmHg 88%
06:00 +24°C° 0.7 mm 8 m/s 710 mmHg 84%
07:00 +24°C° 0.7 mm 8 m/s 710 mmHg 80%
08:00 +24°C° 0.7 mm 8 m/s 711 mmHg 75%
09:00 +26°C° 0 mm 7 m/s 711 mmHg 72%
10:00 +27°C° 0 mm 6 m/s 711 mmHg 69%
11:00 +28°C° 0 mm 5 m/s 711 mmHg 65%
12:00 +29°C° 0 mm 4 m/s 711 mmHg 63%
13:00 +29°C° 0 mm 4 m/s 710 mmHg 61%
14:00 +30°C° 0 mm 3 m/s 709 mmHg 59%
15:00 +30°C° 0 mm 4 m/s 709 mmHg 60%
16:00 +30°C° 0 mm 4 m/s 709 mmHg 61%
17:00 +30°C° 0 mm 4 m/s 709 mmHg 62%
18:00 +29°C° 0 mm 4 m/s 710 mmHg 65%
19:00 +28°C° 0 mm 3 m/s 710 mmHg 67%
20:00 +28°C° 0 mm 3 m/s 710 mmHg 70%
21:00 +28°C° 0.1 mm 4 m/s 711 mmHg 71%
22:00 +28°C° 0.1 mm 4 m/s 711 mmHg 71%
23:00 +28°C° 0.1 mm 4 m/s 711 mmHg 72%

Demain, 8 Juillet, Mercredi

Heure Température Précipitation Vent Pression Humidité
00:00 +27°C° 0 mm 4 m/s 711 mmHg 72%
01:00 +27°C° 0 mm 4 m/s 710 mmHg 72%
02:00 +27°C° 0 mm 5 m/s 710 mmHg 72%
03:00 +27°C° 0 mm 5 m/s 710 mmHg 75%
04:00 +27°C° 0 mm 5 m/s 710 mmHg 77%
05:00 +26°C° 0 mm 5 m/s 710 mmHg 80%
06:00 +26°C° 0 mm 5 m/s 710 mmHg 78%
07:00 +27°C° 0 mm 5 m/s 711 mmHg 77%
08:00 +27°C° 0 mm 5 m/s 711 mmHg 75%
09:00 +28°C° 0 mm 5 m/s 711 mmHg 68%
10:00 +30°C° 0 mm 4 m/s 711 mmHg 61%
11:00 +32°C° 0 mm 4 m/s 711 mmHg 54%
12:00 +33°C° 0 mm 4 m/s 711 mmHg 51%
13:00 +34°C° 0 mm 4 m/s 710 mmHg 48%
14:00 +35°C° 0 mm 4 m/s 710 mmHg 46%
15:00 +35°C° 0 mm 4 m/s 710 mmHg 45%
16:00 +35°C° 0 mm 3 m/s 709 mmHg 45%
17:00 +35°C° 0 mm 3 m/s 709 mmHg 45%
18:00 +34°C° 0 mm 4 m/s 710 mmHg 49%
19:00 +33°C° 0 mm 4 m/s 710 mmHg 53%
20:00 +32°C° 0 mm 4 m/s 711 mmHg 57%
21:00 +30°C° 1.6 mm 5 m/s 711 mmHg 65%
22:00 +28°C° 1.6 mm 5 m/s 711 mmHg 73%
23:00 +27°C° 1.6 mm 5 m/s 711 mmHg 81%

Après-demain, 9 Juillet, Jeudi

Heure Température Précipitation Vent Pression Humidité
00:00 +26°C° 0.1 mm 5 m/s 710 mmHg 81%
01:00 +26°C° 0.1 mm 5 m/s 710 mmHg 81%
02:00 +26°C° 0.1 mm 5 m/s 710 mmHg 81%
03:00 +26°C° 0 mm 5 m/s 710 mmHg 81%
04:00 +26°C° 0 mm 5 m/s 710 mmHg 81%
05:00 +25°C° 0 mm 4 m/s 710 mmHg 80%
06:00 +26°C° 0.1 mm 5 m/s 710 mmHg 79%
07:00 +26°C° 0.1 mm 5 m/s 711 mmHg 77%
08:00 +27°C° 0.1 mm 5 m/s 712 mmHg 76%
09:00 +28°C° 0 mm 5 m/s 712 mmHg 70%
10:00 +29°C° 0 mm 5 m/s 711 mmHg 64%
11:00 +32°C° 0 mm 5 m/s 711 mmHg 58%
12:00 +32°C° 0 mm 4 m/s 711 mmHg 55%
13:00 +33°C° 0 mm 4 m/s 711 mmHg 52%
14:00 +34°C° 0 mm 4 m/s 710 mmHg 49%
15:00 +34°C° 0 mm 3 m/s 710 mmHg 49%
16:00 +33°C° 0 mm 3 m/s 710 mmHg 49%
17:00 +33°C° 0 mm 3 m/s 709 mmHg 49%
18:00 +33°C° 0 mm 3 m/s 710 mmHg 53%
19:00 +32°C° 0 mm 4 m/s 710 mmHg 56%
20:00 +30°C° 0 mm 4 m/s 710 mmHg 60%
21:00 +30°C° 0 mm 5 m/s 710 mmHg 62%
22:00 +29°C° 0 mm 5 m/s 710 mmHg 64%
23:00 +29°C° 0 mm 5 m/s 711 mmHg 66%

10 Juillet, Vendredi

Heure Température Précipitation Vent Pression Humidité
00:00 +28°C° 0 mm 6 m/s 710 mmHg 68%
01:00 +28°C° 0 mm 6 m/s 709 mmHg 71%
02:00 +27°C° 0 mm 7 m/s 709 mmHg 73%
03:00 +27°C° 0.1 mm 6 m/s 709 mmHg 73%
04:00 +26°C° 0.1 mm 6 m/s 709 mmHg 74%
05:00 +26°C° 0.1 mm 5 m/s 709 mmHg 74%
06:00 +27°C° 0.1 mm 5 m/s 710 mmHg 71%
07:00 +27°C° 0.1 mm 5 m/s 711 mmHg 68%
08:00 +28°C° 0.1 mm 6 m/s 712 mmHg 65%
09:00 +30°C° 0 mm 6 m/s 712 mmHg 60%
10:00 +32°C° 0 mm 6 m/s 712 mmHg 54%
11:00 +34°C° 0 mm 6 m/s 712 mmHg 48%
12:00 +34°C° 0 mm 5 m/s 711 mmHg 45%
13:00 +35°C° 0 mm 5 m/s 711 mmHg 42%
14:00 +36°C° 0 mm 4 m/s 710 mmHg 38%
15:00 +36°C° 0 mm 4 m/s 710 mmHg 39%
16:00 +36°C° 0 mm 4 m/s 710 mmHg 39%
17:00 +36°C° 0 mm 3 m/s 709 mmHg 39%
18:00 +35°C° 0 mm 4 m/s 710 mmHg 42%
19:00 +34°C° 0 mm 4 m/s 710 mmHg 46%
20:00 +33°C° 0 mm 4 m/s 711 mmHg 49%
21:00 +32°C° 0 mm 5 m/s 711 mmHg 54%
22:00 +30°C° 0 mm 6 m/s 711 mmHg 59%
23:00 +29°C° 0 mm 7 m/s 711 mmHg 64%

11 Juillet, Samedi

Heure Température Précipitation Vent Pression Humidité
00:00 +29°C° 0 mm 7 m/s 710 mmHg 66%
01:00 +28°C° 0 mm 6 m/s 709 mmHg 67%
02:00 +28°C° 0 mm 5 m/s 709 mmHg 68%
03:00 +27°C° 0 mm 5 m/s 709 mmHg 70%
04:00 +27°C° 0 mm 4 m/s 709 mmHg 72%
05:00 +27°C° 0 mm 3 m/s 709 mmHg 74%
06:00 +28°C° 0 mm 4 m/s 710 mmHg 70%
07:00 +28°C° 0 mm 4 m/s 711 mmHg 66%
08:00 +29°C° 0 mm 4 m/s 711 mmHg 62%
09:00 +32°C° 0 mm 4 m/s 711 mmHg 56%
10:00 +33°C° 0 mm 3 m/s 711 mmHg 50%
11:00 +35°C° 0 mm 3 m/s 711 mmHg 43%
12:00 +36°C° 0 mm 3 m/s 711 mmHg 40%
13:00 +37°C° 0 mm 3 m/s 710 mmHg 36%
14:00 +38°C° 0 mm 3 m/s 710 mmHg 33%
15:00 +38°C° 0 mm 3 m/s 709 mmHg 32%
16:00 +38°C° 0 mm 2 m/s 709 mmHg 31%
17:00 +38°C° 0 mm 2 m/s 708 mmHg 30%
18:00 +38°C° 0 mm 2 m/s 709 mmHg 33%
19:00 +37°C° 0 mm 2 m/s 709 mmHg 35%
20:00 +36°C° 0 mm 2 m/s 709 mmHg 37%
21:00 +36°C° 0 mm 3 m/s 709 mmHg 41%
22:00 +35°C° 0 mm 4 m/s 709 mmHg 44%
23:00 +34°C° 0 mm 5 m/s 708 mmHg 47%

12 Juillet, Dimanche

Heure Température Précipitation Vent Pression Humidité
00:00 +33°C° 0 mm 5 m/s 708 mmHg 53%
01:00 +32°C° 0 mm 5 m/s 708 mmHg 58%
02:00 +29°C° 0 mm 6 m/s 707 mmHg 64%
03:00 +29°C° 0 mm 5 m/s 708 mmHg 64%
04:00 +29°C° 0 mm 5 m/s 708 mmHg 65%
05:00 +29°C° 0 mm 5 m/s 708 mmHg 65%
06:00 +29°C° 0 mm 5 m/s 709 mmHg 63%
07:00 +30°C° 0 mm 6 m/s 709 mmHg 60%
08:00 +32°C° 0 mm 6 m/s 710 mmHg 57%
09:00 +33°C° 0 mm 7 m/s 710 mmHg 52%
10:00 +35°C° 0 mm 7 m/s 710 mmHg 47%
11:00 +36°C° 0 mm 7 m/s 710 mmHg 42%
12:00 +38°C° 0 mm 6 m/s 710 mmHg 38%
13:00 +39°C° 0 mm 6 m/s 709 mmHg 34%
14:00 +40°C° 0 mm 6 m/s 709 mmHg 30%
15:00 +40°C° 0 mm 6 m/s 708 mmHg 31%
16:00 +40°C° 0 mm 5 m/s 708 mmHg 31%
17:00 +39°C° 0 mm 5 m/s 708 mmHg 31%
18:00 +36°C° 0 mm 6 m/s 708 mmHg 42%
19:00 +34°C° 0 mm 8 m/s 708 mmHg 52%
20:00 +31°C° 0 mm 9 m/s 708 mmHg 63%
21:00 +31°C° 0 mm 9 m/s 708 mmHg 64%
22:00 +29°C° 0 mm 10 m/s 708 mmHg 65%
23:00 +28°C° 0 mm 10 m/s 709 mmHg 66%
Voir plus